Regional Weather Roundup
Issued by NWS

Home | Current Version | Previous Version | Text Only | Print | Product List | Glossary On
Versions: 1 2 3 4 5 6 7 8 9 10 11 12 13 14 15 16 17 18 19 20 21 22 23 24 25 26 27 28 29 30 31 32 33 34 35 36 37 38 39 40 41 42 43 44 45 46 47 48 49 50
000
ASUS43 KLSX 201407
RWRMO

WEATHER SUMMARY FOR MISSOURI
NATIONAL WEATHER SERVICE SPRINGFIELD MO
900 AM CDT THU JUL 20 2017

NOTE: "FAIR" INDICATES FEW OR NO CLOUDS BELOW 12,000 FEET WITH NO
       SIGNIFICANT WEATHER AND/OR OBSTRUCTIONS TO VISIBILITY.
       CURRENT SKY AND/OR WEATHER CONDITIONS ARE NOT AVAILABLE FOR
       CHILLICOTHE AND FARMINGTON.

MOZ001>031-035>038-043-044-053-054-201500-
...NORTHERN AND WESTERN MISSOURI...

CITY           SKY/WX    TMP DP  RH WIND       PRES   REMARKS
KANSAS CTY INT MOSUNNY   83  74  74 SW14      30.04R
KANSAS C DTWN  SUNNY     86  73  65 SW14      30.02S HX  93
LEE`S SUMMIT   SUNNY     85  73  67 SW12      30.06R HX  91
ST JOSEPH      SUNNY     82  76  81 S7        30.01S
CHILLICOTHE      N/A     81  75  82 S7        30.03S
KIRKSVILLE     CLOUDY    82  73  74 SW7       30.05S

$$
MOZ066>068-077>081-088>096-101>105-201500-
...SOUTHWEST MISSOURI...

CITY           SKY/WX    TMP DP  RH WIND       PRES   REMARKS
SPRINGFIELD    SUNNY     84  74  71 SW12      30.14R HX  91
JOPLIN         SUNNY     86  74  67 SW17      30.11S HX  94
BRANSON        SUNNY     82  73  74 SW7       30.16R

$$
MOZ032>034-039>042-045>050-055>058-069>072-201500-
...CENTRAL MISSOURI...

CITY           SKY/WX    TMP DP  RH WIND       PRES   REMARKS
COLUMBIA       SUNNY     85  73  67 SW9       30.09S HX  91
JEFFERSON CITY SUNNY     84  73  69 SW6       30.08S HX  90
ROLLA          SUNNY     81  72  74 SW9       30.12S
SEDALIA        SUNNY     84  75  74 SW13      30.08S HX  92
WHITEMAN AFB   MOSUNNY   85  76  75 SW10      30.06S HX  94
WARRENSBURG    SUNNY     82  72  69 S12G18    30.06F
OSAGE BEACH    SUNNY     84  73  69 SW7       30.11S HX  90

$$
MOZ051-052-059>065-201500-
...EAST CENTRAL MISSOURI...

CITY           SKY/WX    TMP DP  RH WIND       PRES   REMARKS
ST LOUIS INTL  CLOUDY    87  70  56 W14       30.09S HX  92
SPIRIT OF STL  CLOUDY    84  73  69 W9        30.08R HX  90
ST CHARLES     CLOUDY    83  73  72 W5        30.08R

$$
MOZ072>076-082>087-097>100-106>115-201500-
...SOUTH CENTRAL AND SOUTHEAST MISSOURI...

CITY           SKY/WX    TMP DP  RH WIND       PRES   REMARKS
CAPE GIRARDEAU SUNNY     82  75  79 W7        30.11R
FARMINGTON     SUNNY     84  73  69 CALM      30.14R HX  90
POPLAR BLUFF   SUNNY     83  76  79 SW3       30.12R HX  91
WEST PLAINS    SUNNY     82  72  71 VRB5      30.16R

$$



USA.gov is the U.S. government's official web portal to all federal, state and local government web resources and services.